TimeCDT,TemperatureF,Dew PointF,Humidity,Sea Level PressureIn,VisibilityMPH,Wind Direction,Wind SpeedMPH,Gust SpeedMPH,PrecipitationIn,Events,Conditions,WindDirDegrees,DateUTC
12:54 AM,37.0,33.1,86,30.10,10.0,NNW,17.3,24.2,N/A,,Overcast,330,2013-04-23 05:54:00
1:09 AM,37.0,32.0,82,30.11,10.0,North,18.4,25.3,N/A,,Overcast,350,2013-04-23 06:09:00
1:33 AM,37.0,32.0,82,30.12,10.0,NNW,15.0,28.8,0.00,Rain,Light Ice Pellets,340,2013-04-23 06:33:00
1:42 AM,37.0,32.0,82,30.12,10.0,NNW,15.0,26.5,0.00,Rain,Light Rain,340,2013-04-23 06:42:00
1:46 AM,36.0,32.0,86,30.12,10.0,NNW,17.3,26.5,0.00,Rain,Light Ice Pellets,340,2013-04-23 06:46:00
1:54 AM,36.0,32.0,86,30.11,10.0,NNW,16.1,-,0.00,Rain,Light Ice Pellets,340,2013-04-23 06:54:00
2:12 AM,36.0,30.9,82,30.08,10.0,North,19.6,27.6,0.00,Rain,Light Rain,350,2013-04-23 07:12:00
2:29 AM,36.0,30.9,82,30.08,10.0,NNW,24.2,29.9,0.00,Rain,Light Rain,340,2013-04-23 07:29:00
2:54 AM,36.0,30.9,82,30.11,10.0,NNW,18.4,29.9,0.00,Snow,Light Snow,340,2013-04-23 07:54:00
3:54 AM,35.1,30.0,82,30.11,10.0,North,17.3,25.3,0.00,Rain-Snow,Light Snow,350,2013-04-23 08:54:00
4:54 AM,35.1,30.0,82,30.13,8.0,North,17.3,28.8,0.00,Snow,Light Snow,350,2013-04-23 09:54:00
5:54 AM,35.1,28.9,78,30.13,10.0,NNW,19.6,27.6,0.00,,Overcast,340,2013-04-23 10:54:00
6:54 AM,34.0,28.0,79,30.12,10.0,North,15.0,26.5,0.00,,Overcast,360,2013-04-23 11:54:00
7:54 AM,34.0,28.0,79,30.15,10.0,North,15.0,20.7,N/A,,Overcast,360,2013-04-23 12:54:00
8:54 AM,34.0,28.0,79,30.16,10.0,North,16.1,23.0,N/A,,Overcast,350,2013-04-23 13:54:00
9:46 AM,35.1,28.0,76,30.13,10.0,North,17.3,24.2,N/A,,Overcast,350,2013-04-23 14:46:00
9:54 AM,34.0,27.0,75,30.15,10.0,NNW,17.3,-,N/A,,Overcast,340,2013-04-23 14:54:00
10:39 AM,35.1,27.0,72,30.14,10.0,North,16.1,20.7,N/A,,Overcast,350,2013-04-23 15:39:00
10:54 AM,35.1,27.0,72,30.17,10.0,North,16.1,-,N/A,,Overcast,350,2013-04-23 15:54:00
11:54 AM,37.9,28.0,68,30.14,10.0,North,17.3,25.3,N/A,,Overcast,360,2013-04-23 16:54:00
12:20 PM,37.9,28.0,68,30.12,10.0,North,16.1,25.3,N/A,,Overcast,360,2013-04-23 17:20:00
12:54 PM,39.0,28.0,65,30.14,10.0,North,15.0,26.5,N/A,,Overcast,10,2013-04-23 17:54:00
1:54 PM,39.9,28.0,63,30.13,10.0,North,15.0,-,N/A,,Overcast,350,2013-04-23 18:54:00
2:54 PM,42.1,28.0,58,30.12,10.0,North,15.0,-,N/A,,Overcast,350,2013-04-23 19:54:00
3:54 PM,43.0,27.0,53,30.10,10.0,North,13.8,-,N/A,,Overcast,350,2013-04-23 20:54:00
4:54 PM,43.0,26.1,51,30.10,10.0,North,13.8,-,N/A,,Overcast,350,2013-04-23 21:54:00
5:54 PM,43.0,24.1,47,30.09,10.0,North,15.0,27.6,N/A,,Overcast,360,2013-04-23 22:54:00
6:54 PM,41.0,23.0,49,30.10,10.0,North,17.3,-,N/A,,Overcast,360,2013-04-23 23:54:00
7:54 PM,39.9,24.1,53,30.11,10.0,North,11.5,-,N/A,,Overcast,360,2013-04-24 00:54:00
8:54 PM,39.0,24.1,55,30.13,10.0,North,15.0,-,N/A,,Overcast,350,2013-04-24 01:54:00
9:54 PM,37.0,23.0,57,30.15,10.0,North,12.7,-,N/A,,Overcast,350,2013-04-24 02:54:00
10:54 PM,36.0,19.9,52,30.17,10.0,North,9.2,-,N/A,,Overcast,350,2013-04-24 03:54:00
11:54 PM,34.0,19.9,56,30.16,10.0,NNW,8.1,-,N/A,,Overcast,330,2013-04-24 04:54:00